Change the Weather History Date:

Saturday, August 9, 2014

  Actual Average Record
Temperature  
Mean Temperature 77 °F 73 °F  
Max Temperature 85 °F 83 °F 95 °F (2007)
Min Temperature 68 °F 63 °F 55 °F (1999)
Degree Days  
Heating Degree Days 0 0  
Month to date heating degree days 0 0  
Since 1 June heating degree days 3 16  
Since 1 July heating degree days 2 1  
Cooling Degree Days 12 8  
Month to date cooling degree days 66 72  
Year to date cooling degree days 745 645  
Since 1 June cooling degree days 582 564  
Growing Degree Days 25 (Base 50)    
Moisture  
Dew Point 64 °F    
Average Humidity 71    
Maximum Humidity 84    
Minimum Humidity 58    
Precipitation  
Precipitation T in 0.09 in 1.03 in (2012)
Month to date precipitation 0.06 0.81  
Year to date precipitation 24.48 27.70  
Sea Level Pressure  
Sea Level Pressure 30.00 in    
Wind  
Wind Speed 6 mph (East)    
Max Wind Speed 13 mph    
Max Gust Speed 18 mph    
Visibility 10 miles    
Events      
T = Trace of Precipitation, MM = Missing Value Source: NWS Daily Summary

Daily Weather History Graph

Daily Weather History Graph

Search for Another Location

Airport or City:

Trip Planner

Search our weather history database for the weather conditions in past years. The results will help you decide how hot, cold, wet, or windy it might be!

Date:

Astronomy

Aug. 09, 2014 Rise Set
Actual Time 6:49 AM EDT 8:46 PM EDT
Civil Twilight 6:20 AM EDT 9:16 PM EDT
Nautical Twilight 5:44 AM EDT 9:51 PM EDT
Astronomical Twilight 5:06 AM EDT 10:30 PM EDT
Moon 7:47 PM EDT (8/9) 5:29 AM EDT (8/9)
Length of Visible Light 14h 55m
Length of Day
13h 56m
Waxing Gibbous, 98% of the Moon is Illuminated
Aug 9
Waxing Gibbous
Aug 10
Full
Aug 17
Last Quarter
Aug 25
New
Sep 2
First Quarter

Hourly Weather History & Observations

Time (EDT) Temp. Heat Index Dew Point Humidity Pressure Visibility Wind Dir Wind Speed Gust Speed Precip Events Conditions
12:53 AM 69.1 °F - 59.0 °F 70% 30.00 in 10.0 mi East 5.8 mph - N/A   Overcast
1:53 AM 69.1 °F - 59.0 °F 70% 30.00 in 10.0 mi East 4.6 mph - N/A   Overcast
2:53 AM 68.0 °F - 60.1 °F 76% 30.00 in 10.0 mi NE 4.6 mph - N/A   Overcast
3:53 AM 68.0 °F - 60.1 °F 76% 29.99 in 10.0 mi ENE 6.9 mph - N/A   Overcast
4:53 AM 69.1 °F - 61.0 °F 75% 30.00 in 10.0 mi ENE 6.9 mph - N/A   Overcast
5:53 AM 68.0 °F - 60.1 °F 76% 30.00 in 10.0 mi ENE 5.8 mph - N/A   Overcast
6:53 AM 68.0 °F - 60.1 °F 76% 30.01 in 10.0 mi ENE 6.9 mph - N/A   Overcast
7:53 AM 68.0 °F - 60.1 °F 76% 30.02 in 10.0 mi East 4.6 mph - 0.00 in   Overcast
8:53 AM 70.0 °F - 61.0 °F 73% 30.02 in 10.0 mi ENE 9.2 mph - N/A   Overcast
9:53 AM 70.0 °F - 62.1 °F 76% 30.01 in 10.0 mi ENE 9.2 mph - N/A   Overcast
10:53 AM 75.0 °F - 64.0 °F 69% 30.02 in 10.0 mi Variable 6.9 mph - N/A   Partly Cloudy
11:53 AM 78.1 °F - 66.9 °F 68% 30.02 in 10.0 mi East 6.9 mph - N/A   Mostly Cloudy
1:53 PM 82.0 °F 84.5 °F 66.9 °F 60% 30.01 in 10.0 mi East 6.9 mph - N/A   Mostly Cloudy
2:53 PM 82.0 °F 84.5 °F 66.9 °F 60% 30.00 in 10.0 mi ESE 8.1 mph - N/A   Mostly Cloudy
3:53 PM 82.0 °F 84.5 °F 66.9 °F 60% 29.99 in 10.0 mi East 6.9 mph - N/A   Overcast
4:53 PM 82.9 °F 85.8 °F 68.0 °F 60% 29.98 in 10.0 mi ESE 8.1 mph - N/A   Mostly Cloudy
5:53 PM 82.0 °F 84.9 °F 68.0 °F 62% 29.97 in 10.0 mi ESE 4.6 mph - N/A   Overcast
6:53 PM 82.9 °F 85.4 °F 66.9 °F 58% 29.95 in 10.0 mi East 8.1 mph - N/A   Clear
7:53 PM 81.0 °F 83.3 °F 66.9 °F 62% 29.96 in 10.0 mi East 3.5 mph - N/A   Clear
8:53 PM 75.9 °F - 68.0 °F 76% 29.99 in 10.0 mi East 3.5 mph - N/A   Clear
9:53 PM 73.9 °F - 68.0 °F 82% 29.99 in 10.0 mi NE 4.6 mph - N/A   Partly Cloudy